User: anonymous   Login
Location: Caltech
(34.1382°N, 118.1253°W)
Time: 14:09:05
(UTC-07:00)
Language:

Cosmos 1833 Rocket - Orbit

View from above orbital plane
View from above orbital plane
View from above satellite
View from above satellite

Ground track
Ground track

The orbit data is extracted from the following two-line orbital elements,

1 17590U 87027B   16150.52899024 -.00000246  00000-0 -99183-4 0  9996
2 17590  71.0039 237.8467 0005135 194.9791 165.1181 14.16725185509787
Epoch (UTC): 29 May 2016 12:41:44
Eccentricity: 0.0005135
inclination: 71.0039°
perigee height: 833 km
apogee height: 840 km
right ascension of ascending node: 237.8467°
argument of perigee: 194.9791°
revolutions per day: 14.16725185
mean anomaly at epoch: 165.1181°
orbit number at epoch: 50978

The dashed part of the orbit path shows where the satellite is in the earth's shadow,  

DLR